Weather History for KEAT - December, 2013

Change the Weather History Date:

Sunday, December 22, 2013

  Actual Average Record
Temperature  
Mean Temperature 31 °F 27 °F  
Max Temperature 34 °F 31 °F 51 °F (2014)
Min Temperature 27 °F 22 °F -9 °F (1983)
Degree Days  
Heating Degree Days 34 38  
Month to date heating degree days 889 803  
Since 1 July heating degree days 2730 2175  
Cooling Degree Days 0 0  
Month to date cooling degree days 0 0  
Year to date cooling degree days 383 790  
Moisture  
Dew Point 22 °F    
Average Humidity 86    
Maximum Humidity 93    
Minimum Humidity 72    
Precipitation  
Precipitation T in 0.04 in 0.60 in (1964)
Month to date precipitation 0.60 1.02  
Year to date precipitation 12.90 7.63  
Snow  
Snow 0.00 in - - ()
Month to date snowfall 3.4  
Snow Depth 3.00 in    
Sea Level Pressure  
Sea Level Pressure 30.27 in    
Wind  
Wind Speed 0 mph (SSE)    
Max Wind Speed 4 mph    
Max Gust Speed -    
Visibility 6 miles    
Events      
T = Trace of Precipitation, MM = Missing Value Source: NWS Daily Summary

Daily Weather History Graph

Daily Weather History Graph

Search for Another Location

Airport or City:

Trip Planner

Search our weather history database for the weather conditions in past years. The results will help you decide how hot, cold, wet, or windy it might be!

Date:

Astronomy

Dec. 22, 2013 Rise Set
Actual Time 7:46 AM PST 4:13 PM PST
Civil Twilight 7:10 AM PST 4:49 PM PST
Nautical Twilight 6:30 AM PST 5:28 PM PST
Astronomical Twilight 5:53 AM PST 6:05 PM PST
Moon 9:51 PM PST 10:26 AM PST
Length of Visible Light 9h 39m
Length of Day
8h 27m
Waning Gibbous, 76% of the Moon is Illuminated
Dec 22
Waning Gibbous
Dec 25
Last Quarter
Jan 1
New
Jan 7
First Quarter
Jan 15
Full

Hourly Weather History & Observations

Time (PST) Temp. Windchill Dew Point Humidity Pressure Visibility Wind Dir Wind Speed Gust Speed Precip Events Conditions
12:55 AM 21.0 °F - 18.0 °F 88% 30.18 in 6.0 mi Calm Calm - N/A   Clear
1:55 AM 21.9 °F - 19.0 °F 89% 30.19 in 6.0 mi Calm Calm - N/A   Clear
2:42 AM 21.2 °F - 19.4 °F 93% 30.15 in 7.0 mi Calm Calm - N/A   Partly Cloudy
2:55 AM 23.0 °F - 19.9 °F 88% 30.21 in 7.0 mi Calm Calm - N/A   Mostly Cloudy
3:55 AM 21.9 °F - 19.0 °F 89% 30.22 in 6.0 mi Calm Calm - N/A   Overcast
4:55 AM 21.9 °F 17.2 °F 19.0 °F 89% 30.22 in 5.0 mi East 3.5 mph - N/A   Overcast
5:55 AM 23.0 °F - 19.9 °F 88% 30.23 in 4.0 mi Calm Calm - N/A   Overcast
6:55 AM 23.0 °F - 21.0 °F 92% 30.26 in 4.0 mi Calm Calm - N/A   Overcast
7:51 AM 23.0 °F - 21.2 °F 93% 30.21 in 5.0 mi Calm Calm - N/A   Overcast
7:55 AM 23.0 °F - 21.0 °F 92% 30.26 in 5.0 mi Calm Calm - N/A   Overcast
8:55 AM 24.1 °F - 21.0 °F 88% 30.29 in 4.0 mi Calm Calm - N/A   Overcast
9:55 AM 25.0 °F - 21.9 °F 88% 30.32 in 3.0 mi Calm Calm - N/A   Overcast
10:15 AM 24.8 °F - 21.2 °F 86% 30.27 in 3.0 mi Calm Calm - N/A   Overcast
10:42 AM 24.8 °F - 23.0 °F 93% 30.27 in 2.5 mi Calm Calm - N/A   Overcast
10:55 AM 25.0 °F - 23.0 °F 92% 30.32 in 2.5 mi Calm Calm - N/A   Overcast
11:04 AM 24.8 °F - 23.0 °F 93% 30.27 in 3.0 mi Calm Calm - N/A   Overcast
11:25 AM 26.6 °F - 23.0 °F 86% 30.27 in 3.0 mi Calm Calm - N/A   Overcast
11:55 AM 27.0 °F - 23.0 °F 85% 30.31 in 4.0 mi North - - N/A   Overcast
12:55 PM 28.9 °F - 23.0 °F 78% 30.31 in 7.0 mi Calm Calm - N/A   Overcast
1:55 PM 30.9 °F - 24.1 °F 76% 30.30 in 8.0 mi Calm Calm - N/A   Partly Cloudy
2:55 PM 30.9 °F 27.5 °F 23.0 °F 72% 30.30 in 9.0 mi SW 3.5 mph - N/A   Clear
3:55 PM 30.0 °F - 23.0 °F 75% 30.31 in 9.0 mi Calm Calm - N/A   Clear
4:55 PM 28.0 °F - 23.0 °F 81% 30.33 in 8.0 mi Calm Calm - N/A   Clear
5:55 PM 27.0 °F - 21.9 °F 81% 30.32 in 8.0 mi Calm Calm - N/A   Clear
6:55 PM 26.1 °F - 21.0 °F 81% 30.32 in 8.0 mi Calm Calm - N/A   Clear
7:55 PM 26.1 °F - 21.9 °F 84% 30.32 in 8.0 mi Calm Calm - N/A   Clear
8:55 PM 27.0 °F - 21.9 °F 81% 30.31 in 8.0 mi Calm Calm - N/A   Partly Cloudy
9:55 PM 27.0 °F - 21.9 °F 81% 30.31 in 8.0 mi Calm Calm - N/A   Partly Cloudy
10:55 PM 28.0 °F - 23.0 °F 81% 30.30 in 7.0 mi Calm Calm - N/A   Clear
11:55 PM 27.0 °F - 24.1 °F 89% 30.29 in 6.0 mi Calm Calm - N/A   Clear